[[{"header":{"parameterUnit":"m.s-1","parameterCategory":1,"la1":30.2991,"la2":30.254,"lo1":-89.0895,"lo2":-89.0444,"dy":0.0017,"dx":0.0017,"nx":28,"ny":28,"refTime":"2024-02-23T09:00:00:Z","depth":0,"parameterNumber":2,"parameterNumberName":"U-component_of_WINDS"},"data":[0,0,0,0,0,0,0,0,0,0,0,0,0,0,0,0,0,0,0,0,0,0,0,0,0,0,0,0,0,0,0,0,0,0,0,0,0,0,0,0,0,0,0,0,0,0,0,0,0,0,0,0,0,0,0,0,0,0,3.0189,3.019,0,3.0285,3.0287,3.0288,3.0267,3.0265,3.0263,3.0262,3.0364,3.0368,3.0373,0,0,0,0,0,0,0,0,0,0,0,0,0,2.9993,2.9996,3.0189,3.019,3.0192,3.0285,3.0287,3.0288,3.0267,3.0265,3.0263,3.0261,3.0363,3.0368,3.0373,0,0,0,0,0,0,0,0,0,0,0,0,0,3.0082,2.9997,3.0189,3.0193,3.0194,3.0285,3.0287,3.0288,3.0268,3.0265,3.0262,3.026,3.0361,3.0367,3.0374,3.0469,0,0,3.0394,3.0397,0,0,0,0,0,0,0,0,3.0077,3.009,3.0191,3.0192,3.0194,3.0261,3.0255,3.0349,3.0269,3.024,3.0262,3.0259,3.0332,3.0341,3.0365,3.0473,3.0478,3.0395,3.0399,3.0401,3.0403,0,0,0,0,0,0,0,3.0071,3.0085,3.0227,3.0192,3.0194,3.0191,3.0201,3.0273,3.03,3.0242,3.0241,3.0252,3.0333,3.0359,3.0367,3.0479,3.0394,3.04,3.0404,3.0407,3.0672,3.0675,0,0,0,0,0,0,3.0063,3.008,3.0224,3.023,3.0128,3.0197,3.0208,3.0243,3.0299,3.0305,3.0255,3.0251,3.0349,3.036,3.0371,3.0487,3.0401,3.0408,3.0411,3.0669,3.0673,3.0676,0,0,0,0,0,0,3.0059,3.0076,3.022,3.0155,3.0173,3.0203,3.0242,3.0246,3.0272,3.0309,3.0314,3.0276,3.0347,3.0362,3.0445,3.049,3.041,3.0417,3.0666,3.067,3.0675,3.0719,0,0,0,0,0,0,3.0053,3.0074,3.0109,3.0156,3.0177,3.0291,3.0245,3.025,3.0283,3.0279,3.033,3.0336,3.0346,3.0435,3.0451,3.0498,3.0422,3.0662,3.0668,3.0673,3.0713,3.0724,3.0734,0,0,0,0,0,3.0046,3.0118,3.0111,3.0129,3.0221,3.0294,3.0306,3.0315,3.0287,3.0323,3.0347,3.0334,3.0482,3.0444,3.0462,3.0511,3.0659,3.0666,3.0673,3.0709,3.0722,3.0734,0,0,0,0,0,0,3.0077,3.0124,3.0117,3.0206,3.0246,3.029,3.0336,3.0329,3.0378,3.0373,3.0384,3.0395,3.048,3.0504,3.046,3.0607,3.0567,3.0578,3.0588,3.0601,3.0611,3.0604,3.0427,0,0,0,0,0,3.0094,3.0148,3.0187,3.0262,3.0282,3.0306,3.0338,3.0342,3.0384,3.0401,3.0431,3.0474,3.053,3.0567,3.062,3.0717,3.0729,3.076,3.077,3.0778,3.0788,3.0842,3.0857,3.0699,3.0699,3.0699,0,0,3.0131,3.0163,3.0196,3.0269,3.03,3.0358,3.032,3.0382,3.0425,3.0411,3.0491,3.0515,3.0563,3.0654,3.0695,3.0676,3.0834,3.0787,3.0793,3.0799,3.0851,3.0866,3.0879,3.0704,3.0703,3.0702,0,0,3.0226,3.0255,3.0321,3.0354,3.0401,3.0417,3.0433,3.0479,3.0494,3.0574,3.0565,3.0617,3.0714,3.0749,3.078,3.089,3.0881,3.0908,3.0961,3.1014,3.1027,3.1038,3.1079,3.1093,3.0917,3.0917,3.0917,0,3.0265,3.0349,3.0357,3.042,3.0453,3.0442,3.0511,3.0542,3.0606,3.063,3.0607,3.0729,3.0761,3.086,3.0887,3.0912,3.0932,3.0902,3.1024,3.1035,3.1046,3.1085,3.11,3.092,3.092,3.092,3.0919,0,3.0396,3.0455,3.0503,3.0564,3.0603,3.0668,3.0687,3.0726,3.0727,3.0746,3.0829,3.0867,3.0929,3.0953,3.0954,3.1053,3.104,3.1021,3.0981,3.1064,3.1101,3.1116,3.0924,3.0923,3.0922,3.0922,0,0,3.0512,3.0577,3.0595,3.0623,3.0676,3.0723,3.0789,3.0849,3.0882,3.0927,3.0984,3.1067,3.1049,3.1084,3.109,3.1137,3.1224,3.1112,3.1113,3.1132,3.1337,3.1352,3.1369,3.1218,3.1221,3.1223,3.1333,0,3.0613,3.0728,3.0738,3.0842,3.0898,3.0889,3.0947,3.0987,3.1007,3.1058,3.108,3.1139,3.1111,3.1132,3.1178,3.1204,3.1265,3.1196,3.1273,3.1275,3.1261,3.1388,3.1403,3.1505,3.1348,3.135,3.1352,0,3.0745,3.0794,3.0903,3.095,3.0974,3.1025,3.1082,3.1131,3.1177,3.1188,3.1227,3.1228,3.1298,3.1255,3.1353,3.1305,3.1338,3.1355,3.1359,3.1367,3.1319,3.14,3.1538,3.1554,3.1375,3.1373,3.1371,0,3.0821,3.0913,3.0991,3.1016,3.1072,3.1109,3.1134,3.1177,3.1213,3.1263,3.1287,3.1345,3.1377,3.1422,3.1439,3.1406,3.1537,3.1495,3.1549,3.1549,3.1577,3.1575,3.1723,3.1597,3.1597,3.1596,3.1596,0,3.0932,3.1,3.1026,3.1074,3.1151,3.1162,3.1238,3.1262,3.13,3.1354,3.1351,3.1402,3.142,3.1475,3.1488,3.1568,3.1582,3.1595,3.1598,3.1595,3.1594,3.1617,3.1611,3.1601,3.16,3.1599,3.1598,0,3.1029,3.1049,3.1134,3.118,3.1194,3.1248,3.1289,3.1336,3.1355,3.1424,3.1441,3.1471,3.1536,3.1556,3.1634,3.1643,3.1737,3.1733,3.1721,3.1722,3.1775,3.177,3.1943,3.1967,3.1825,3.1826,3.1827,0,3.1099,3.1151,3.1204,3.1239,3.1266,3.1323,3.136,3.1374,3.1413,3.147,3.1511,3.1575,3.1626,3.1729,3.176,3.182,3.1818,3.1875,3.1827,3.1824,3.182,3.1817,3.1823,3.1884,3.1885,3.1886,3.1887,0,3.1222,3.123,3.1282,3.1339,3.1383,3.1429,3.1473,3.1503,3.1524,3.1568,3.1633,3.1673,3.1753,3.1817,3.1878,3.1906,3.1901,3.1902,3.1918,3.1916,3.1908,3.1914,3.1746,3.1898,3.1897,3.1896,3.1895,3.1895,3.1309,3.1355,3.14,3.1459,3.1494,3.1536,3.1583,3.1608,3.1662,3.1728,3.1733,3.1805,3.1851,3.1933,3.1964,3.2021,3.2005,3.2028,3.2034,3.2039,3.2044,3.1898,3.2032,3.2032,3.2032,3.2031,3.2031,0,3.1432,3.1461,3.1515,3.1577,3.1625,3.1615,3.1664,3.1704,3.1767,3.181,3.1861,3.1937,3.2,3.2035,3.2098,3.2137,3.2136,3.2153,3.215,3.2157,3.2054,3.2034,3.2152,3.2152,3.2152,3.2152,3.2152,3.2152,3.1502,3.1581,3.1594,3.1691,3.1719,3.1788,3.1817,3.1856,3.1891,3.1976,3.2028,3.205,3.2091,3.2157,3.2215,3.2224,3.2247,3.2266,3.2273,3.2177,3.2164,3.2152,3.2134,3.2271,3.2271,3.2372,3.2373,3.2374]},{"header":{"parameterUnit":"m.s-1","parameterCategory":1,"la1":30.2991,"la2":30.254,"lo1":-89.0895,"lo2":-89.0444,"dy":0.0017,"dx":0.0017,"nx":28,"ny":28,"refTime":"2024-02-23T09:00:00:Z","depth":0,"parameterNumber":3,"parameterNumberName":"V-component_of_WINDS"},"data":[0,0,0,0,0,0,0,0,0,0,0,0,0,0,0,0,0,0,0,0,0,0,0,0,0,0,0,0,0,0,0,0,0,0,0,0,0,0,0,0,0,0,0,0,0,0,0,0,0,0,0,0,0,0,0,0,0,0,3.7105,3.7106,0,3.7253,3.7255,3.7256,3.7239,3.7236,3.7234,3.7232,3.7384,3.739,3.7397,0,0,0,0,0,0,0,0,0,0,0,0,0,3.6808,3.6813,3.7105,3.7106,3.7108,3.7253,3.7255,3.7257,3.7239,3.7236,3.7234,3.7231,3.7382,3.739,3.7397,0,0,0,0,0,0,0,0,0,0,0,0,0,3.6945,3.6815,3.7104,3.7117,3.712,3.7252,3.7255,3.7257,3.724,3.7236,3.7233,3.7229,3.738,3.7389,3.7398,3.7528,0,0,3.7427,3.7431,0,0,0,0,0,0,0,0,3.6937,3.6955,3.7113,3.7116,3.712,3.7224,3.7206,3.7348,3.7241,3.7194,3.7232,3.7228,3.7334,3.7347,3.7383,3.7535,3.7542,3.7428,3.7434,3.7438,3.744,0,0,0,0,0,0,0,3.6927,3.6949,3.7163,3.7116,3.7119,3.7116,3.7131,3.7233,3.7282,3.7198,3.7197,3.7215,3.7335,3.7373,3.7386,3.7544,3.7428,3.7436,3.7442,3.7446,3.7813,3.7817,0,0,0,0,0,0,3.6915,3.6941,3.7159,3.7168,3.7017,3.7124,3.7141,3.7194,3.7281,3.7291,3.7218,3.7214,3.7359,3.7375,3.7391,3.7551,3.7438,3.7446,3.7452,3.7809,3.7814,3.7818,0,0,0,0,0,0,3.6908,3.6934,3.7153,3.7054,3.7082,3.7133,3.7192,3.7199,3.7237,3.7296,3.7305,3.7248,3.7357,3.7378,3.7495,3.7556,3.7451,3.7459,3.7804,3.781,3.7816,3.7871,0,0,0,0,0,0,3.69,3.6932,3.6981,3.7056,3.7087,3.7253,3.7196,3.7204,3.7254,3.7249,3.7327,3.7336,3.7356,3.7481,3.7504,3.7567,3.7467,3.7799,3.7807,3.7814,3.7864,3.7878,3.789,0,0,0,0,0,3.6889,3.699,3.6984,3.701,3.715,3.7257,3.7275,3.7295,3.7258,3.7309,3.7347,3.7334,3.7545,3.7493,3.7519,3.7586,3.7795,3.7805,3.7813,3.7858,3.7875,3.789,0,0,0,0,0,0,3.6922,3.7,3.6994,3.7122,3.7183,3.7254,3.7318,3.7313,3.7385,3.7379,3.74,3.7418,3.7537,3.7572,3.7513,3.7717,3.7665,3.768,3.769,3.7707,3.772,3.771,3.7474,0,0,0,0,0,3.6944,3.7024,3.7088,3.7195,3.7226,3.7267,3.7314,3.7324,3.7389,3.7414,3.7461,3.7524,3.7604,3.7657,3.7734,3.7868,3.7886,3.7927,3.794,3.795,3.7964,3.804,3.8059,3.7849,3.7849,3.7848,0,0,3.6991,3.7044,3.7093,3.7203,3.7252,3.7335,3.7289,3.7378,3.7441,3.7428,3.7542,3.7578,3.7649,3.7776,3.7834,3.7809,3.8026,3.7962,3.797,3.7978,3.8051,3.8071,3.8089,3.7855,3.7854,3.7853,0,0,3.7119,3.7166,3.7262,3.7311,3.7385,3.7412,3.7435,3.7507,3.753,3.7645,3.7638,3.7712,3.785,3.7902,3.7946,3.8095,3.8087,3.812,3.819,3.8263,3.828,3.8295,3.8351,3.837,3.8132,3.8132,3.8132,0,3.7168,3.7293,3.7311,3.7403,3.7452,3.7444,3.7542,3.7589,3.7685,3.7719,3.769,3.7865,3.7912,3.8052,3.8088,3.8124,3.8152,3.8112,3.8276,3.8291,3.8305,3.8359,3.8379,3.8136,3.8136,3.8135,3.8135,0,3.7351,3.7438,3.7506,3.7599,3.7656,3.775,3.7783,3.7839,3.7844,3.7874,3.7991,3.8048,3.8138,3.8171,3.8176,3.8312,3.8295,3.8271,3.822,3.8329,3.838,3.84,3.8141,3.814,3.8139,3.8138,0,0,3.7505,3.7608,3.7633,3.7676,3.7757,3.7825,3.7918,3.8006,3.8055,3.812,3.8201,3.8318,3.8297,3.8348,3.8359,3.8423,3.8541,3.8391,3.8393,3.8419,3.8696,3.8716,3.874,3.8534,3.8538,3.8541,3.8691,0,3.7644,3.781,3.783,3.7978,3.806,3.8054,3.8136,3.8195,3.8225,3.8299,3.8333,3.8417,3.838,3.8411,3.8474,3.8513,3.8597,3.8502,3.8611,3.8615,3.8597,3.8766,3.8787,3.8926,3.8711,3.8714,3.8717,0,3.7828,3.79,3.8057,3.8129,3.8163,3.8237,3.832,3.839,3.8457,3.8475,3.8532,3.8536,3.8634,3.8577,3.8713,3.8648,3.8694,3.8719,3.8725,3.8739,3.8674,3.8786,3.897,3.8992,3.8747,3.8745,3.8743,0,3.7928,3.8064,3.8176,3.8213,3.8298,3.8351,3.8389,3.8452,3.8505,3.8577,3.8611,3.8694,3.874,3.8804,3.883,3.8785,3.8966,3.891,3.8985,3.8985,3.9026,3.9023,3.9223,3.905,3.905,3.905,3.9049,0,3.8082,3.8179,3.8223,3.8292,3.8401,3.8422,3.853,3.8566,3.8623,3.87,3.8698,3.877,3.8799,3.8876,3.8896,3.9008,3.9028,3.9046,3.9051,3.9048,3.9046,3.908,3.9072,3.9055,3.9054,3.9053,3.9052,0,3.8214,3.8247,3.8369,3.844,3.846,3.8538,3.8599,3.8667,3.8696,3.8793,3.8817,3.8864,3.8955,3.8986,3.9096,3.911,3.924,3.9235,3.9218,3.922,3.9294,3.9288,3.9524,3.9558,3.9361,3.9363,3.9364,0,3.8312,3.8386,3.8466,3.8517,3.8558,3.864,3.8694,3.8717,3.8773,3.8856,3.8914,3.9004,3.9078,3.9224,3.9268,3.9352,3.9351,3.9428,3.9364,3.9359,3.9356,3.9352,3.9361,3.9441,3.9443,3.9445,3.9446,0,3.8483,3.8495,3.8572,3.8656,3.872,3.8787,3.8851,3.8894,3.8927,3.899,3.9083,3.914,3.9253,3.9343,3.943,3.9469,3.9465,3.9465,3.9488,3.9487,3.9475,3.9486,3.9254,3.9461,3.9459,3.9458,3.9457,3.9457,3.8602,3.8669,3.8736,3.8823,3.8874,3.8935,3.9003,3.904,3.9118,3.9213,3.9221,3.9322,3.9389,3.9505,3.9548,3.9628,3.9607,3.9638,3.9647,3.9655,3.9662,3.946,3.9643,3.9643,3.9643,3.9642,3.9642,0,3.8776,3.8818,3.8898,3.8989,3.9057,3.9045,3.9116,3.9175,3.9264,3.9326,3.9399,3.9507,3.9595,3.9645,3.9733,3.9788,3.9788,3.981,3.9808,3.9818,3.9675,3.9648,3.9809,3.9809,3.9809,3.9809,3.9809,3.9809,3.8874,3.8988,3.9009,3.9148,3.919,3.9289,3.9332,3.9388,3.9438,3.9559,3.9632,3.9664,3.9723,3.9815,3.9896,3.9908,3.9942,3.9967,3.9978,3.9845,3.9828,3.9811,3.9787,3.9974,3.9974,4.0115,4.0117,4.0118]}]]